• In Austria
  • List of Countries
  • For 7 days
  • Water Temperature
  • Satellite Maps
  • Weather Map
  • News
  • Weather Widgets
  • user-avatar
    Login

    Hourly Weather Pułtusk

    Today, 19 February, Monday

    Time Temperature Precipitation Wind Pressure Humidity
    00:00 0°C° 0 mm 1 mps 762 mmHg 80%
    01:00 -2°C° 0 mm 2 mps 762 mmHg 80%
    02:00 -2°C° 0 mm 2 mps 762 mmHg 81%
    03:00 -2°C° 0 mm 2 mps 762 mmHg 82%
    04:00 -2°C° 0 mm 2 mps 762 mmHg 83%
    05:00 -2°C° 0 mm 2 mps 762 mmHg 84%
    06:00 -3°C° 0 mm 2 mps 762 mmHg 85%
    07:00 -3°C° 0 mm 2 mps 762 mmHg 86%
    08:00 -2°C° 0 mm 2 mps 762 mmHg 82%
    09:00 -1°C° 0 mm 2 mps 761 mmHg 78%
    10:00 +1°C° 0 mm 2 mps 761 mmHg 74%
    11:00 +2°C° 0 mm 1 mps 761 mmHg 70%
    12:00 +3°C° 0 mm 1 mps 761 mmHg 67%
    13:00 +3°C° 0 mm 1 mps 761 mmHg 63%
    14:00 +3°C° 0 mm 1 mps 761 mmHg 65%
    15:00 +2°C° 0 mm 1 mps 761 mmHg 67%
    16:00 +1°C° 0 mm 0 mps 761 mmHg 69%
    17:00 +1°C° 0 mm 1 mps 761 mmHg 71%
    18:00 +1°C° 0 mm 1 mps 761 mmHg 73%
    19:00 0°C° 0 mm 1 mps 760 mmHg 75%
    20:00 0°C° 0 mm 1 mps 760 mmHg 76%
    21:00 0°C° 0 mm 1 mps 760 mmHg 77%
    22:00 0°C° 0 mm 1 mps 760 mmHg 78%
    23:00 0°C° 0 mm 1 mps 760 mmHg 79%

    Tomorrow, 20 February, Tuesday

    Time Temperature Precipitation Wind Pressure Humidity
    00:00 0°C° 0 mm 1 mps 760 mmHg 80%
    01:00 0°C° 0 mm 1 mps 760 mmHg 80%
    02:00 -3°C° 0 mm 2 mps 760 mmHg 82%
    03:00 -3°C° 0 mm 2 mps 760 mmHg 83%
    04:00 -3°C° 0 mm 2 mps 760 mmHg 84%
    05:00 -3°C° 0 mm 2 mps 760 mmHg 85%
    06:00 -3°C° 0 mm 2 mps 760 mmHg 86%
    07:00 -3°C° 0 mm 2 mps 760 mmHg 86%
    08:00 -2°C° 0 mm 3 mps 760 mmHg 82%
    09:00 -2°C° 0 mm 3 mps 760 mmHg 77%
    10:00 -1°C° 0 mm 3 mps 760 mmHg 73%
    11:00 0°C° 0 mm 3 mps 760 mmHg 70%
    12:00 0°C° 0 mm 3 mps 760 mmHg 67%
    13:00 +1°C° 0 mm 3 mps 760 mmHg 63%
    14:00 +1°C° 0 mm 3 mps 760 mmHg 66%
    15:00 0°C° 0 mm 3 mps 759 mmHg 68%
    16:00 0°C° 0 mm 3 mps 759 mmHg 70%
    17:00 -1°C° 0 mm 3 mps 759 mmHg 74%
    18:00 -1°C° 0 mm 3 mps 760 mmHg 78%
    19:00 -2°C° 0 mm 3 mps 760 mmHg 82%
    20:00 -2°C° 0 mm 2 mps 760 mmHg 82%
    21:00 -2°C° 0 mm 2 mps 760 mmHg 83%
    22:00 -3°C° 0 mm 2 mps 760 mmHg 84%
    23:00 -3°C° 0 mm 2 mps 760 mmHg 85%

    Day after tomorrow, 21 February, Wednesday

    Time Temperature Precipitation Wind Pressure Humidity
    00:00 -3°C° 0 mm 2 mps 760 mmHg 85%
    01:00 -3°C° 0 mm 2 mps 760 mmHg 86%
    02:00 -3°C° 0 mm 2 mps 760 mmHg 86%
    03:00 -3°C° 0 mm 2 mps 760 mmHg 87%
    04:00 -4°C° 0 mm 2 mps 760 mmHg 87%
    05:00 -4°C° 0 mm 2 mps 760 mmHg 87%
    06:00 -4°C° 0 mm 2 mps 760 mmHg 88%
    07:00 -4°C° 0 mm 2 mps 760 mmHg 88%
    08:00 -3°C° 0 mm 2 mps 760 mmHg 83%
    09:00 -2°C° 0 mm 2 mps 760 mmHg 78%
    10:00 -2°C° 0 mm 3 mps 760 mmHg 72%
    11:00 -1°C° 0 mm 3 mps 760 mmHg 70%
    12:00 -1°C° 0 mm 3 mps 760 mmHg 67%
    13:00 0°C° 0 mm 3 mps 760 mmHg 64%
    14:00 -1°C° 0 mm 3 mps 760 mmHg 65%
    15:00 -1°C° 0 mm 3 mps 760 mmHg 65%
    16:00 -1°C° 0 mm 3 mps 760 mmHg 66%
    17:00 -2°C° 0 mm 3 mps 760 mmHg 68%
    18:00 -2°C° 0 mm 3 mps 760 mmHg 70%
    19:00 -4°C° 0 mm 3 mps 760 mmHg 71%
    20:00 -4°C° 0 mm 3 mps 760 mmHg 72%
    21:00 -4°C° 0 mm 3 mps 761 mmHg 73%
    22:00 -5°C° 0 mm 3 mps 761 mmHg 75%
    23:00 -5°C° 0 mm 3 mps 761 mmHg 76%

    22 February, Thursday

    Time Temperature Precipitation Wind Pressure Humidity
    00:00 -5°C° 0 mm 3 mps 761 mmHg 78%
    01:00 -5°C° 0 mm 3 mps 761 mmHg 80%
    02:00 -5°C° 0 mm 3 mps 761 mmHg 80%
    03:00 -6°C° 0 mm 3 mps 761 mmHg 80%
    04:00 -6°C° 0 mm 3 mps 761 mmHg 80%
    05:00 -6°C° 0 mm 3 mps 761 mmHg 80%
    06:00 -6°C° 0 mm 3 mps 761 mmHg 80%
    07:00 -7°C° 0 mm 3 mps 761 mmHg 79%
    08:00 -7°C° 0 mm 4 mps 761 mmHg 75%
    09:00 -5°C° 0 mm 4 mps 761 mmHg 70%
    10:00 -5°C° 0 mm 4 mps 761 mmHg 65%
    11:00 -4°C° 0 mm 4 mps 761 mmHg 62%
    12:00 -4°C° 0 mm 4 mps 760 mmHg 59%
    13:00 -3°C° 0 mm 4 mps 760 mmHg 56%
    14:00 -4°C° 0 mm 4 mps 760 mmHg 56%
    15:00 -5°C° 0 mm 5 mps 760 mmHg 55%
    16:00 -5°C° 0 mm 5 mps 760 mmHg 55%
    17:00 -6°C° 0 mm 5 mps 760 mmHg 57%
    18:00 -6°C° 0 mm 5 mps 760 mmHg 59%
    19:00 -7°C° 0 mm 5 mps 760 mmHg 61%
    20:00 -7°C° 0 mm 5 mps 760 mmHg 63%
    21:00 -7°C° 0 mm 5 mps 760 mmHg 65%
    22:00 -8°C° 0 mm 5 mps 760 mmHg 68%
    23:00 -8°C° 0 mm 5 mps 760 mmHg 69%

    23 February, Friday

    Time Temperature Precipitation Wind Pressure Humidity
    00:00 -10°C° 0 mm 5 mps 759 mmHg 70%
    01:00 -10°C° 0 mm 5 mps 759 mmHg 72%
    02:00 -10°C° 0 mm 5 mps 759 mmHg 71%
    03:00 -11°C° 0 mm 5 mps 759 mmHg 71%
    04:00 -11°C° 0 mm 5 mps 758 mmHg 71%
    05:00 -11°C° 0 mm 5 mps 758 mmHg 71%
    06:00 -12°C° 0 mm 5 mps 758 mmHg 70%
    07:00 -12°C° 0 mm 5 mps 758 mmHg 70%
    08:00 -12°C° 0 mm 5 mps 758 mmHg 67%
    09:00 -11°C° 0 mm 5 mps 758 mmHg 64%
    10:00 -11°C° 0 mm 5 mps 758 mmHg 60%
    11:00 -10°C° 0 mm 5 mps 758 mmHg 57%
    12:00 -10°C° 0 mm 5 mps 758 mmHg 54%
    13:00 -9°C° 0 mm 6 mps 757 mmHg 50%
    14:00 -9°C° 0 mm 6 mps 757 mmHg 49%
    15:00 -9°C° 0 mm 6 mps 757 mmHg 48%
    16:00 -9°C° 0 mm 6 mps 757 mmHg 46%
    17:00 -10°C° 0 mm 6 mps 757 mmHg 49%
    18:00 -10°C° 0 mm 6 mps 757 mmHg 52%
    19:00 -11°C° 0 mm 6 mps 757 mmHg 54%
    20:00 -11°C° 0 mm 6 mps 757 mmHg 56%
    21:00 -12°C° 0 mm 5 mps 757 mmHg 58%
    22:00 -12°C° 0 mm 5 mps 757 mmHg 60%
    23:00 -12°C° 0 mm 5 mps 757 mmHg 61%

    24 February, Saturday

    Time Temperature Precipitation Wind Pressure Humidity
    00:00 -13°C° 0 mm 5 mps 756 mmHg 62%
    01:00 -13°C° 0 mm 5 mps 756 mmHg 62%
    02:00 -13°C° 0 mm 5 mps 756 mmHg 63%
    03:00 -13°C° 0 mm 5 mps 756 mmHg 64%
    04:00 -14°C° 0 mm 5 mps 756 mmHg 65%
    05:00 -15°C° 0 mm 6 mps 756 mmHg 65%
    06:00 -15°C° 0 mm 6 mps 756 mmHg 65%
    07:00 -15°C° 0 mm 6 mps 756 mmHg 65%
    08:00 -15°C° 0 mm 6 mps 756 mmHg 61%
    09:00 -15°C° 0 mm 6 mps 756 mmHg 57%
    10:00 -14°C° 0 mm 6 mps 755 mmHg 54%
    11:00 -13°C° 0 mm 7 mps 755 mmHg 51%
    12:00 -13°C° 0 mm 7 mps 755 mmHg 48%
    13:00 -12°C° 0 mm 7 mps 755 mmHg 46%
    14:00 -12°C° 0 mm 7 mps 754 mmHg 48%
    15:00 -12°C° 0 mm 6 mps 754 mmHg 51%
    16:00 -12°C° 0 mm 6 mps 754 mmHg 54%
    17:00 -12°C° 0.1 mm 6 mps 753 mmHg 57%
    18:00 -12°C° 0.1 mm 6 mps 753 mmHg 61%
    19:00 -12°C° 0.1 mm 6 mps 753 mmHg 64%
    20:00 -14°C° 0 mm 6 mps 753 mmHg 65%
    21:00 -13°C° 0 mm 5 mps 753 mmHg 66%
    22:00 -13°C° 0 mm 5 mps 753 mmHg 66%
    23:00 -13°C° 0.1 mm 5 mps 752 mmHg 68%
    Show more